Coleman, TX

3:33 AM CDT on June 26, 2017 (GMT -0500)
Coleman Municipal

Weather History for KCOM - April, 2014

Change the Weather History Date:

Wednesday, April 2, 2014

  Actual Average (KABI) Record (KABI)
Temperature  
Mean Temperature 76 °F -  
Max Temperature 83 °F 70 °F 93 °F (1903)
Min Temperature 69 °F 47 °F 28 °F (1896)
Cooling Degree Days 11    
Growing Degree Days 26 (Base 50)    
Moisture  
Dew Point 62 °F    
Average Humidity 66    
Maximum Humidity 78    
Minimum Humidity 50    
Precipitation  
Precipitation 0.00 in - - ()
Sea Level Pressure  
Sea Level Pressure 29.76 in    
Wind  
Wind Speed 10 mph (SSE)    
Max Wind Speed 20 mph    
Max Gust Speed 26 mph    
Visibility 10 miles    
Events      
Averages and records for this station are not official NWS values.
T = Trace of Precipitation, MM = Missing Value Source: NWS Daily Summary

Daily Weather History Graph

Daily Weather History Graph

Search for Another Location

Airport or City:

Trip Planner

Search our weather history database for the weather conditions in past years. The results will help you decide how hot, cold, wet, or windy it might be!

Date:

Astronomy

Apr. 02, 2014 Rise Set
Actual Time 7:24 AM CDT 7:57 PM CDT
Civil Twilight 7:00 AM CDT 8:22 PM CDT
Nautical Twilight 6:31 AM CDT 8:51 PM CDT
Astronomical Twilight 6:02 AM CDT 9:20 PM CDT
Moon 9:20 AM CDT (4/2) 11:11 PM CDT (4/2)
Length of Visible Light 13h 22m
Length of Day
12h 33m
Waxing Crescent, 10% of the Moon is Illuminated
Apr 2
Waxing Crescent
Apr 7
First Quarter
Apr 15
Full
Apr 22
Last Quarter
Apr 29
New

Hourly Weather History & Observations

Time (CDT) Temp. Heat Index Dew Point Humidity Pressure Visibility Wind Dir Wind Speed Gust Speed Precip Events Conditions
12:15 AM 71.2 °F - 60.1 °F 68% 29.83 in 10.0 mi SSE 9.2 mph - N/A   Clear
12:35 AM 70.7 °F - 60.3 °F 69% 29.84 in 10.0 mi SSE 8.1 mph - N/A   Clear
12:55 AM 70.3 °F - 60.8 °F 72% 29.84 in 10.0 mi SSE 9.2 mph - N/A   Clear
1:15 AM 70.7 °F - 61.2 °F 72% 29.84 in 10.0 mi SSE 8.1 mph - N/A   Mostly Cloudy
1:35 AM 71.6 °F - 61.7 °F 71% 29.84 in 10.0 mi SSE 8.1 mph - N/A   Overcast
1:55 AM 71.2 °F - 61.7 °F 72% 29.83 in 10.0 mi South 11.5 mph - N/A   Overcast
2:15 AM 71.2 °F - 61.7 °F 72% 29.83 in 10.0 mi South 10.4 mph 16.1 mph N/A   Overcast
2:35 AM 70.9 °F - 61.7 °F 73% 29.82 in 10.0 mi South 9.2 mph - N/A   Overcast
2:55 AM 70.9 °F - 61.7 °F 73% 29.81 in 10.0 mi SSE 9.2 mph - N/A   Overcast
3:15 AM 70.7 °F - 61.9 °F 74% 29.81 in 10.0 mi SSE 6.9 mph - N/A   Overcast
3:35 AM 70.7 °F - 62.1 °F 74% 29.81 in 10.0 mi SSE 5.8 mph - N/A   Overcast
3:55 AM 70.3 °F - 62.1 °F 75% 29.81 in 10.0 mi SSE 8.1 mph - N/A   Overcast
4:15 AM 70.2 °F - 62.1 °F 75% 29.80 in 10.0 mi SSE 9.2 mph - N/A   Overcast
4:35 AM 70.2 °F - 62.1 °F 75% 29.80 in 10.0 mi SSE 8.1 mph - N/A   Overcast
4:55 AM 69.8 °F - 62.1 °F 76% 29.80 in 10.0 mi SSE 6.9 mph - N/A   Overcast
5:15 AM 69.4 °F - 62.1 °F 77% 29.80 in 10.0 mi SSE 5.8 mph - N/A   Overcast
5:35 AM 69.3 °F - 62.1 °F 78% 29.80 in 10.0 mi SSE 8.1 mph - N/A   Overcast
5:55 AM 69.3 °F - 61.9 °F 77% 29.80 in 10.0 mi South 6.9 mph - N/A   Overcast
6:15 AM 70.0 °F - 61.9 °F 75% 29.80 in 10.0 mi South 8.1 mph - N/A   Overcast
7:35 AM 70.0 °F - 61.3 °F 74% 29.82 in 10.0 mi South 9.2 mph - N/A   Overcast
7:55 AM 70.2 °F - 61.7 °F 74% 29.82 in 10.0 mi South 9.2 mph - N/A   Overcast
8:15 AM 70.0 °F - 61.7 °F 75% 29.82 in 10.0 mi South 8.1 mph - N/A   Overcast
8:35 AM 70.3 °F - 61.9 °F 74% 29.83 in 10.0 mi South 6.9 mph - N/A   Overcast
8:55 AM 70.7 °F - 62.1 °F 74% 29.83 in 10.0 mi South 6.9 mph - N/A   Overcast
9:15 AM 71.1 °F - 62.2 °F 74% 29.83 in 10.0 mi South 10.4 mph - N/A   Overcast
9:35 AM 71.6 °F - 62.2 °F 72% 29.83 in 10.0 mi South 10.4 mph - N/A   Overcast
9:55 AM 72.0 °F - 62.6 °F 72% 29.83 in 10.0 mi South 11.5 mph 18.4 mph N/A   Overcast
10:15 AM 73.0 °F - 62.8 °F 70% 29.83 in 10.0 mi South 10.4 mph - N/A   Overcast
10:35 AM 73.4 °F - 62.8 °F 69% 29.82 in 10.0 mi South 11.5 mph - N/A   Overcast
10:55 AM 73.8 °F - 63.0 °F 69% 29.83 in 10.0 mi South 9.2 mph 17.3 mph N/A   Overcast
11:35 AM 74.1 °F - 63.1 °F 68% 29.82 in 10.0 mi South 12.7 mph 16.1 mph N/A   Overcast
11:55 AM 74.5 °F - 63.0 °F 67% 29.82 in 10.0 mi South 13.8 mph 17.3 mph N/A   Overcast
12:15 PM 76.1 °F - 63.3 °F 64% 29.81 in 10.0 mi South 12.7 mph 19.6 mph N/A   Overcast
12:55 PM 76.3 °F - 63.3 °F 64% 29.80 in 10.0 mi South 15.0 mph 20.7 mph N/A   Overcast
1:15 PM 77.5 °F - 63.0 °F 61% 29.79 in 10.0 mi South 16.1 mph 19.6 mph N/A   Overcast
1:35 PM 78.4 °F - 63.9 °F 61% 29.78 in 10.0 mi South 13.8 mph 18.4 mph N/A   Overcast
1:55 PM 80.1 °F 81.7 °F 64.0 °F 58% 29.77 in 10.0 mi SSE 11.5 mph 19.6 mph N/A   Mostly Cloudy
2:15 PM 80.2 °F 82.1 °F 65.1 °F 60% 29.75 in 10.0 mi SSE 11.5 mph 21.9 mph N/A   Mostly Cloudy
2:35 PM 81.9 °F 83.5 °F 64.9 °F 56% 29.74 in 10.0 mi SSE 13.8 mph 21.9 mph N/A   Mostly Cloudy
2:55 PM 81.5 °F 83.1 °F 64.6 °F 56% 29.73 in 10.0 mi SSE 11.5 mph 24.2 mph N/A   Scattered Clouds
3:15 PM 82.6 °F 83.9 °F 64.0 °F 53% 29.72 in 10.0 mi South 15.0 mph 18.4 mph N/A   Mostly Cloudy
3:35 PM 83.5 °F 84.7 °F 63.7 °F 51% 29.70 in 10.0 mi SSE 17.3 mph 20.7 mph N/A   Mostly Cloudy
3:55 PM 81.7 °F 82.9 °F 62.8 °F 53% 29.70 in 10.0 mi SE 12.7 mph 19.6 mph N/A   Mostly Cloudy
4:15 PM 82.6 °F 83.4 °F 62.2 °F 50% 29.69 in 10.0 mi SSE 11.5 mph 16.1 mph N/A   Mostly Cloudy
4:35 PM 81.7 °F 82.9 °F 62.8 °F 53% 29.69 in 10.0 mi SSE 13.8 mph 18.4 mph N/A   Mostly Cloudy
5:15 PM 82.2 °F 83.3 °F 62.8 °F 52% 29.68 in 10.0 mi SSE 17.3 mph 21.9 mph N/A   Scattered Clouds
5:35 PM 83.1 °F 84.0 °F 62.6 °F 50% 29.67 in 10.0 mi SSE 16.1 mph - N/A   Mostly Cloudy
5:55 PM 80.8 °F 82.0 °F 62.8 °F 54% 29.67 in 10.0 mi South 13.8 mph 23.0 mph N/A   Mostly Cloudy
6:15 PM 80.8 °F 82.0 °F 62.6 °F 54% 29.67 in 10.0 mi South 13.8 mph - N/A   Scattered Clouds
6:35 PM 81.0 °F 82.2 °F 63.0 °F 54% 29.67 in 10.0 mi South 16.1 mph 19.6 mph N/A   Scattered Clouds
6:55 PM 80.4 °F 81.7 °F 62.8 °F 55% 29.67 in 10.0 mi South 17.3 mph 21.9 mph N/A   Clear
7:15 PM 79.5 °F - 62.2 °F 55% 29.67 in 10.0 mi SSE 16.1 mph 24.2 mph N/A   Clear
7:35 PM 79.0 °F - 61.9 °F 56% 29.67 in 10.0 mi South 19.6 mph 26.5 mph N/A   Clear
7:55 PM 78.1 °F - 61.5 °F 57% 29.67 in 10.0 mi SSE 10.4 mph 20.7 mph N/A   Clear
8:15 PM 76.5 °F - 62.6 °F 62% 29.68 in 10.0 mi SSE 13.8 mph 21.9 mph N/A   Clear
8:35 PM 75.4 °F - 62.6 °F 64% 29.69 in 10.0 mi SSE 11.5 mph - N/A   Clear
8:55 PM 74.5 °F - 62.2 °F 66% 29.70 in 10.0 mi SSE 9.2 mph - N/A   Clear
9:15 PM 74.3 °F - 62.1 °F 65% 29.70 in 10.0 mi SSE 9.2 mph - N/A   Clear
9:35 PM 74.1 °F - 61.7 °F 65% 29.71 in 10.0 mi SSE 8.1 mph - N/A   Scattered Clouds
9:55 PM 73.9 °F - 61.0 °F 64% 29.71 in 10.0 mi SSE 8.1 mph - N/A   Scattered Clouds
10:15 PM 72.9 °F - 60.8 °F 66% 29.71 in 10.0 mi SSE 8.1 mph - N/A   Clear
10:35 PM 72.1 °F - 60.8 °F 67% 29.70 in 10.0 mi SSE 9.2 mph - N/A   Clear
10:55 PM 71.8 °F - 60.8 °F 68% 29.70 in 10.0 mi SSE 9.2 mph - N/A   Clear
11:15 PM 72.1 °F - 61.2 °F 68% 29.71 in 10.0 mi SSE 9.2 mph - N/A   Clear
11:35 PM 71.6 °F - 61.2 °F 70% 29.71 in 10.0 mi South 8.1 mph - N/A   Clear
11:55 PM 70.3 °F - 61.0 °F 72% 29.70 in 10.0 mi South 6.9 mph - N/A   Clear